TimeCST,TemperatureF,Dew PointF,Humidity,Sea Level PressureIn,VisibilityMPH,Wind Direction,Wind SpeedMPH,Gust SpeedMPH,PrecipitationIn,Events,Conditions,WindDirDegrees,DateUTC
12:54 AM,21.9,12.9,68,30.21,10.0,South,4.6,-,N/A,,Clear,170,2011-11-30 06:54:00
1:54 AM,21.0,12.9,71,30.20,10.0,Calm,Calm,-,N/A,,Clear,0,2011-11-30 07:54:00
2:54 AM,19.9,10.9,68,30.17,10.0,South,4.6,-,N/A,,Clear,180,2011-11-30 08:54:00
3:54 AM,19.9,10.9,68,30.15,10.0,SE,4.6,-,N/A,,Clear,140,2011-11-30 09:54:00
4:54 AM,24.1,10.9,57,30.12,10.0,SSE,4.6,-,N/A,,Clear,150,2011-11-30 10:54:00
5:54 AM,21.0,10.9,65,30.12,10.0,Calm,Calm,-,N/A,,Clear,0,2011-11-30 11:54:00
6:54 AM,30.9,15.1,52,30.10,10.0,South,8.1,-,N/A,,Clear,190,2011-11-30 12:54:00
7:54 AM,30.9,16.0,54,30.08,10.0,South,11.5,-,N/A,,Clear,190,2011-11-30 13:54:00
8:54 AM,36.0,18.0,48,30.06,10.0,South,13.8,-,N/A,,Clear,190,2011-11-30 14:54:00
9:54 AM,45.0,19.0,36,30.04,10.0,SSW,16.1,-,N/A,,Clear,200,2011-11-30 15:54:00
10:54 AM,46.9,18.0,32,30.02,10.0,SSW,15.0,23.0,N/A,,Clear,200,2011-11-30 16:54:00
11:54 AM,51.1,18.0,27,29.98,10.0,SSW,20.7,33.4,N/A,,Clear,200,2011-11-30 17:54:00
12:54 PM,52.0,21.9,31,29.94,10.0,SSW,20.7,27.6,N/A,,Clear,200,2011-11-30 18:54:00
1:54 PM,51.1,24.1,35,29.90,10.0,South,18.4,-,N/A,,Clear,180,2011-11-30 19:54:00
2:54 PM,52.0,25.0,35,29.89,10.0,South,16.1,-,N/A,,Clear,190,2011-11-30 20:54:00
3:54 PM,52.0,25.0,35,29.89,10.0,South,12.7,-,N/A,,Clear,180,2011-11-30 21:54:00
4:54 PM,48.2,24.8,40,29.85,10.0,South,11.5,-,N/A,,Clear,170,2011-11-30 22:54:00
5:54 PM,43.0,25.0,49,29.90,10.0,South,6.9,-,N/A,,Clear,170,2011-11-30 23:54:00
6:54 PM,41.0,24.1,51,29.93,10.0,South,5.8,-,N/A,,Clear,190,2011-12-01 00:54:00
7:54 PM,34.0,23.0,64,29.96,10.0,South,8.1,-,N/A,,Clear,170,2011-12-01 01:54:00
8:54 PM,35.1,21.9,59,29.96,10.0,SSE,6.9,-,N/A,,Clear,160,2011-12-01 02:54:00
9:54 PM,35.1,21.0,57,29.98,10.0,SSE,4.6,-,N/A,,Clear,160,2011-12-01 03:54:00
10:54 PM,33.1,21.0,61,29.99,10.0,South,4.6,-,N/A,,Clear,170,2011-12-01 04:54:00
11:54 PM,33.1,19.9,59,30.01,10.0,Calm,Calm,-,N/A,,Clear,0,2011-12-01 05:54:00